STARLINK-1867 (47153 NORAD) Tracking and Keplerian Element Data
This shows tracking and keplerian element data for the satellite.
Feedback or suggestion? Click here.
Element | Value |
Catalog | 47153 |
Name | STARLINK-1867 |
Epoch Orbit | 1593 |
Epoch Day | 62.91667824 |
Epoch Year | 2021 |
RAAN | 249.7502 |
Inclination | 53.0559 |
Eccentricity | 0.0001843 |
Argument of Perigee | 106.8482 |
Mean Anonmoly | 108.8556 |
Mean Motion | 15.06284534 |
Decay Rate | 0.00131924 |
L1 | 1 47153U 20088AH 21062.91667824 .00131924 00000-0 87385-2 0 9995 |
L2 | 2 47153 53.0559 249.7502 0001843 106.8482 108.8556 15.06284534 15932 |
Live tracking and technical data element details for STARLINK-1867 (NORAD 47153). STARLINK-1867 can be tracked NOW for your location showing map with azimuth and elevation plus other details from your city location.
Track the satellite on the map from your city or location and see movement details for azimuth, elevation, latitude, longitude, range, height, and movement on the map or in text.
IsCatalogInMostPopularTable: catalog: 47153, numindb: 41
Update: records affected: 1
GetName: 47153 STARLINK-1867
Hit Count: updated at: Fri, 05 Mar 2021 07:22:03 GMT